WIF5W ENBR-ENZV

Flight info

Callsign WIF5W
Flight time 0h 24m
Altitude 15000
Route BEGOD
Aircraft DH8B/M-SDFGR/S

Departure

Time 2026-04-22 19:32
Airport Bergen Airport, Flesland (ENBR)

Arrival

Time 2026-04-22 19:57
Airport Stavanger Airport, Sola (ENZV)
Time Latitude Longitude Altitude Speed Heading
2026-04-22 19:18 60.29085 5.22876 173 ft 0 kts 47°
2026-04-22 19:29 60.29085 5.22877 173 ft 0 kts 45°
2026-04-22 19:30 60.29089 5.22878 173 ft 1 kts
2026-04-22 19:30 60.29059 5.22816 172 ft 12 kts 234°
2026-04-22 19:30 60.29048 5.22632 172 ft 15 kts 261°
2026-04-22 19:30 60.29032 5.22419 172 ft 16 kts 253°
2026-04-22 19:31 60.28951 5.22372 171 ft 10 kts 217°
2026-04-22 19:31 60.28924 5.22185 164 ft 18 kts 261°
2026-04-22 19:31 60.28910 5.21961 160 ft 9 kts 316°
2026-04-22 19:31 60.28934 5.21949 160 ft 0 kts 349°
2026-04-22 19:32 60.29064 5.21907 158 ft 72 kts 351°
2026-04-22 19:32 60.29855 5.21647 198 ft 145 kts 351°
2026-04-22 19:32 60.30906 5.21326 773 ft 160 kts 350°
2026-04-22 19:32 60.32025 5.21025 1487 ft 167 kts 351°
2026-04-22 19:33 60.33061 5.19946 2205 ft 175 kts 315°
2026-04-22 19:33 60.33512 5.17612 2923 ft 189 kts 275°
2026-04-22 19:33 60.33122 5.15023 3651 ft 200 kts 242°
2026-04-22 19:33 60.32083 5.13115 4368 ft 210 kts 206°
2026-04-22 19:34 60.30638 5.12763 5108 ft 213 kts 169°
2026-04-22 19:34 60.29178 5.13277 5846 ft 214 kts 174°
2026-04-22 19:34 60.27678 5.13279 6596 ft 216 kts 185°
2026-04-22 19:34 60.26174 5.13096 7325 ft 218 kts 183°
2026-04-22 19:35 60.24649 5.13080 8055 ft 220 kts 180°
2026-04-22 19:35 60.23105 5.13180 8801 ft 222 kts 179°
2026-04-22 19:35 60.22082 5.13252 9304 ft 224 kts 180°
2026-04-22 19:35 60.20002 5.13357 10328 ft 226 kts 181°
2026-04-22 19:36 60.18424 5.13549 11036 ft 228 kts 173°
2026-04-22 19:36 60.16846 5.14106 11765 ft 230 kts 171°
2026-04-22 19:36 60.15259 5.14636 12506 ft 232 kts 172°
2026-04-22 19:36 60.13680 5.15143 13257 ft 234 kts 172°
2026-04-22 19:37 60.12061 5.15641 14034 ft 236 kts 172°
2026-04-22 19:37 60.10436 5.16086 14766 ft 236 kts 172°
2026-04-22 19:37 60.08789 5.16499 15372 ft 243 kts 172°
2026-04-22 19:37 60.07015 5.16952 15429 ft 269 kts 172°
2026-04-22 19:38 60.05087 5.17484 15448 ft 288 kts 172°
2026-04-22 19:38 60.03050 5.18042 15463 ft 300 kts 172°
2026-04-22 19:38 60.00977 5.18586 15480 ft 308 kts 172°
2026-04-22 19:38 59.98826 5.19146 15503 ft 312 kts 172°
2026-04-22 19:39 59.96655 5.19713 15519 ft 317 kts 172°
2026-04-22 19:39 59.94496 5.20285 15499 ft 306 kts 172°
2026-04-22 19:39 59.92414 5.20829 15446 ft 297 kts 172°
2026-04-22 19:39 59.90405 5.21350 15402 ft 295 kts 172°
2026-04-22 19:40 59.88378 5.21886 15413 ft 294 kts 172°
2026-04-22 19:40 59.86351 5.22420 15412 ft 294 kts 172°
2026-04-22 19:40 59.84322 5.22948 15411 ft 293 kts 172°
2026-04-22 19:40 59.82301 5.23475 15412 ft 292 kts 172°
2026-04-22 19:41 59.80285 5.24004 15411 ft 292 kts 172°
2026-04-22 19:41 59.78272 5.24529 15412 ft 292 kts 172°
2026-04-22 19:41 59.76244 5.25054 15408 ft 293 kts 172°
2026-04-22 19:41 59.74213 5.25581 15404 ft 293 kts 172°
2026-04-22 19:42 59.72213 5.26104 15396 ft 294 kts 172°
2026-04-22 19:42 59.70180 5.26629 15401 ft 295 kts 172°
2026-04-22 19:42 59.68140 5.27155 15401 ft 295 kts 172°
2026-04-22 19:42 59.66100 5.27686 15398 ft 295 kts 172°
2026-04-22 19:43 59.62043 5.28736 15398 ft 295 kts 172°
2026-04-22 19:43 59.60007 5.29256 15404 ft 295 kts 172°
2026-04-22 19:43 59.57971 5.29783 15403 ft 295 kts 172°
2026-04-22 19:44 59.55930 5.30311 15405 ft 295 kts 172°
2026-04-22 19:44 59.53891 5.30832 15407 ft 294 kts 172°
2026-04-22 19:44 59.51856 5.31354 15403 ft 295 kts 172°
2026-04-22 19:44 59.49817 5.31877 15404 ft 295 kts 172°
2026-04-22 19:45 59.47808 5.32395 15405 ft 295 kts 172°
2026-04-22 19:45 59.45774 5.32913 15406 ft 295 kts 172°
2026-04-22 19:45 59.43769 5.33419 15096 ft 288 kts 172°
2026-04-22 19:45 59.41785 5.33928 14613 ft 286 kts 172°
2026-04-22 19:46 59.39816 5.34439 14134 ft 284 kts 172°
2026-04-22 19:46 59.37884 5.34930 13610 ft 282 kts 173°
2026-04-22 19:46 59.35937 5.35420 13086 ft 281 kts 173°
2026-04-22 19:46 59.34003 5.35912 12569 ft 279 kts 173°
2026-04-22 19:47 59.32088 5.36404 12066 ft 277 kts 173°
2026-04-22 19:47 59.30174 5.36889 11567 ft 276 kts 173°
2026-04-22 19:47 59.28915 5.37205 11242 ft 275 kts 173°
2026-04-22 19:47 59.26409 5.37840 10599 ft 273 kts 173°
2026-04-22 19:48 59.24532 5.38319 10100 ft 271 kts 173°
2026-04-22 19:48 59.22667 5.38788 9575 ft 270 kts 174°
2026-04-22 19:48 59.20801 5.39254 9046 ft 268 kts 173°
2026-04-22 19:48 59.18954 5.39718 8542 ft 266 kts 173°
2026-04-22 19:49 59.17119 5.40184 8038 ft 265 kts 173°
2026-04-22 19:49 59.15314 5.40640 7549 ft 264 kts 174°
2026-04-22 19:49 59.13494 5.41095 7103 ft 262 kts 174°
2026-04-22 19:49 59.11704 5.41540 6750 ft 256 kts 174°
2026-04-22 19:50 59.09947 5.41976 6372 ft 253 kts 174°
2026-04-22 19:50 59.08208 5.42408 6032 ft 248 kts 173°
2026-04-22 19:50 59.06503 5.42837 5747 ft 245 kts 173°
2026-04-22 19:50 59.04766 5.43265 5475 ft 256 kts 173°
2026-04-22 19:51 59.02998 5.43705 5232 ft 262 kts 173°
2026-04-22 19:51 59.01176 5.44168 4996 ft 266 kts 173°
2026-04-22 19:51 58.99332 5.44628 4755 ft 267 kts 173°
2026-04-22 19:51 58.97481 5.45080 4529 ft 267 kts 173°
2026-04-22 19:52 58.95635 5.45541 4301 ft 267 kts 173°
2026-04-22 19:52 58.93795 5.46003 4072 ft 266 kts 173°
2026-04-22 19:52 58.91979 5.46442 3789 ft 266 kts 173°
2026-04-22 19:52 58.90181 5.46887 3417 ft 255 kts 173°
2026-04-22 19:53 58.89004 5.47182 3148 ft 250 kts 173°
2026-04-22 19:53 58.87310 5.47632 2738 ft 247 kts 169°
2026-04-22 19:53 58.85710 5.48758 2318 ft 240 kts 149°
2026-04-22 19:53 58.84511 5.50761 2006 ft 218 kts 122°
2026-04-22 19:54 58.83713 5.53044 1938 ft 191 kts 111°
2026-04-22 19:54 58.83198 5.55284 1783 ft 177 kts 100°
2026-04-22 19:54 58.82896 5.57535 1667 ft 168 kts 92°
2026-04-22 19:54 58.82717 5.59738 1511 ft 164 kts 83°
2026-04-22 19:55 58.82866 5.61784 1339 ft 145 kts 56°
2026-04-22 19:55 58.83453 5.63172 1158 ft 130 kts 23°
2026-04-22 19:55 58.84279 5.63730 965 ft 128 kts
2026-04-22 19:55 58.85176 5.63876 618 ft 129 kts 358°
2026-04-22 19:56 58.86062 5.63830 336 ft 127 kts 356°
2026-04-22 19:56 58.86906 5.63808 105 ft 114 kts 358°
2026-04-22 19:56 58.87633 5.63779 30 ft 92 kts 359°
2026-04-22 19:56 58.88173 5.63768 28 ft 66 kts 359°
2026-04-22 19:57 58.88516 5.63759 26 ft 22 kts 360°
2026-04-22 19:57 58.88630 5.63757 25 ft 17 kts 359°
2026-04-22 19:57 58.88709 5.63628 26 ft 17 kts 271°
2026-04-22 19:57 58.88683 5.63427 28 ft 14 kts 205°
2026-04-22 19:58 58.88563 5.63420 27 ft 21 kts 178°
2026-04-22 19:58 58.88450 5.63375 29 ft 17 kts 246°
2026-04-22 19:58 58.88393 5.63214 26 ft 16 kts 176°
2026-04-22 19:58 58.88288 5.63270 30 ft 16 kts 166°
2026-04-22 19:59 58.88177 5.63299 26 ft 17 kts 187°
2026-04-22 20:00 58.88156 5.63075 22 ft 0 kts 315°